This is the latest recevied weather packets stored in our database for station/object WE8M. If no packets are shown the sender has not sent any weather packets the latest 10 day(s).
| Time | Temp. | Humidity | Pressure | Rain* | Wind** | Luminosity | Snow |
|---|---|---|---|---|---|---|---|
| 1777785189 | 0.56° C | 92% | 1018.6 hPa | 0 mm | - | - | - |
| 1777784886 | 1.11° C | 91% | 1018.9 hPa | 0 mm | - | - | - |
| 1777784582 | 1.11° C | 91% | 1018.7 hPa | 0 mm | - | - | - |
| 1777784280 | 1.67° C | 91% | 1018.7 hPa | 0 mm | - | - | - |
| 1777783978 | 1.67° C | 91% | 1018.7 hPa | 0 mm | - | - | - |
| 1777783674 | 2.22° C | 92% | 1018.7 hPa | 0 mm | - | - | - |
| 1777783371 | 1.67° C | 91% | 1018.7 hPa | 0 mm | - | - | - |
| 1777783068 | 1.67° C | 91% | 1018.8 hPa | 0 mm | - | - | - |
| 1777782765 | 1.67° C | 90% | 1018.7 hPa | 0 mm | - | - | - |
| 1777782461 | 1.67° C | 90% | 1018.6 hPa | 0 mm | - | - | - |
| 1777782158 | 1.67° C | 89% | 1018.7 hPa | 0 mm | - | - | - |
| 1777781854 | 2.22° C | 89% | 1018.6 hPa | 0 mm | - | - | - |
| 1777781552 | 2.22° C | 88% | 1018.6 hPa | 0 mm | - | - | - |
| 1777781249 | 2.22° C | 88% | 1018.8 hPa | 0 mm | - | - | - |
| 1777780947 | 2.22° C | 88% | 1018.7 hPa | 0 mm | - | - | - |
| 1777780643 | 2.22° C | 87% | 1018.8 hPa | 0 mm | - | - | - |
| 1777780341 | 2.78° C | 86% | 1018.7 hPa | 0 mm | - | - | - |
| 1777780038 | 2.78° C | 86% | 1018.9 hPa | 0 mm | - | - | - |
| 1777779735 | 2.78° C | 85% | 1018.8 hPa | 0 mm | - | - | - |
| 1777779432 | 2.78° C | 86% | 1018.9 hPa | 0 mm | - | - | - |
| 1777779129 | 2.78° C | 87% | 1018.8 hPa | 0 mm | - | - | - |
| 1777778828 | 2.22° C | 87% | 1018.7 hPa | 0 mm | - | - | - |
| 1777778526 | 2.78° C | 88% | 1019.1 hPa | 0 mm | - | - | - |
| 1777778223 | 2.78° C | 86% | 1018.9 hPa | 0 mm | - | - | - |
| 1777777921 | 2.78° C | 86% | 1018.6 hPa | 0 mm | - | - | - |
* Rain latest hour (hover to see other rain measurements)
** Current wind speed in m/s (hover to see current wind gust speed)